User: anonymous   Login
Location: Champseau
(45.8333°N, 1.7667°E)
Time: 15:01:20
(UTC+00:00)
Language:

ISS - Orbit

View from above orbital plane
View from above orbital plane
View from above satellite
View from above satellite

Ground track
Ground track

The orbit data is extracted from the following two-line orbital elements,

1 25544U 98067A   21343.41105832  .00001026  00000-0  26844-4 0  9994
2 25544  51.6429 196.3067 0004267 290.0753 127.4657 15.48949375315754
Epoch (UTC): 09 December 2021 09:51:55
Eccentricity: 0.0004267
inclination: 51.6429°
perigee height: 417 km
apogee height: 423 km
right ascension of ascending node: 196.3067°
argument of perigee: 290.0753°
revolutions per day: 15.48949375
mean anomaly at epoch: 127.4657°
orbit number at epoch: 31575

The dashed part of the orbit path shows where the satellite is in the earth's shadow,  

DLR